This is the latest recevied weather packets stored in our database for station/object JM1YTT-13. If no packets are shown the sender has not sent any weather packets the latest 10 day(s).
| Time | Temp. | Humidity | Pressure | Rain* | Wind** | Luminosity | Snow |
|---|---|---|---|---|---|---|---|
| 1788293563 | 22.78° C | 95% | 1013.2 hPa | 0 mm | - | - | - |
| 1788286363 | 23.33° C | 95% | 1013.6 hPa | 0 mm | - | - | - |
| 1788284563 | 23.33° C | 95% | 1013.6 hPa | 0 mm | - | - | - |
| 1788282763 | 23.33° C | 95% | 1013.5 hPa | 0 mm | - | - | - |
| 1788279163 | 23.33° C | 95% | 1013.9 hPa | 0 mm | - | - | - |
| 1788275563 | 22.78° C | 94% | 1014.5 hPa | 0 mm | - | - | - |
| 1788271963 | 22.78° C | 94% | 1015 hPa | 0 mm | - | - | - |
| 1788270163 | 23.33° C | 94% | 1015 hPa | 0 mm | - | - | - |
| 1788268363 | 23.33° C | 93% | 1015 hPa | 0 mm | - | - | - |
| 1788266563 | 23.33° C | 93% | 1015 hPa | 0 mm | - | - | - |
| 1788264763 | 23.33° C | 92% | 1015.2 hPa | 0 mm | - | - | - |
| 1788261163 | 23.89° C | 91% | 1015.1 hPa | 0 mm | - | - | - |
| 1788259363 | 23.89° C | 91% | 1014.9 hPa | 0 mm | - | - | - |
| 1788257563 | 24.44° C | 90% | 1014.6 hPa | 0 mm | - | - | - |
| 1788255763 | 25° C | 90% | 1014.3 hPa | 0 mm | - | - | - |
| 1788253963 | 25° C | 89% | 1014.1 hPa | 0 mm | - | - | - |
| 1788252163 | 25.56° C | 88% | 1014 hPa | 0 mm | - | - | - |
| 1788250363 | 26.11° C | 87% | 1014 hPa | 0 mm | - | - | - |
| 1788248563 | 26.67° C | 85% | 1014 hPa | 0 mm | - | - | - |
| 1788246763 | 26.67° C | 83% | 1014 hPa | 0 mm | - | - | - |
| 1788244963 | 27.78° C | 82% | 1013.9 hPa | 0 mm | - | - | - |
| 1788243163 | 27.78° C | 80% | 1013.9 hPa | 0 mm | - | - | - |
| 1788241363 | 28.89° C | 78% | 1013.9 hPa | 0 mm | - | - | - |
| 1788239563 | 29.44° C | 77% | 1014 hPa | 0 mm | - | - | - |
| 1788237763 | 29.44° C | 77% | 1014 hPa | 0 mm | - | - | - |
* Rain latest hour (hover to see other rain measurements)
** Current wind speed in m/s (hover to see current wind gust speed)